Torna al catalogo

ARIANE 44LP DEB

LostHEO
NORAD 27662·DEBRIS·🇫🇷 France

Lanciato Mar 2, 1991 da Guiana Space Centre

Loading…

Prossimi Passaggi (prossime 24 ore)

TLE

ObsoletoSource: Space-Track

Epoca: May 8, 2026, 22:13 UTC

1 27662U 91015N   26128.92626718  .00001016  00000-0  88679-3 0  9998
2 27662   5.4226  41.1180 6005185 234.6700  53.5292  3.93854725176440

Traccia ARIANE 44LP DEB in tempo reale con AllMySat

Download on the App Store